Flag for Germany Weather past 2 weeks in Bad Salzuflen, North Rhine-Westphalia, Germany

Now
59 °F

Passing clouds.


Feels Like: 57 °F
Forecast: 39 / 63 °F
Wind: 9 mph from Northeast

Location: Bueckeburg

Current Time: Apr 19, 2015 at 6:30:26 PM

Latest Report: Apr 19, 2015 at 5:20 PM


Visibility: N/A

Pressure: 30.21 "Hg

Humidity: 45%

Dew point: 37 °F

Location of Bad SalzuflenLocation

Historic Weather in Bad Salzuflen — Graph

°F

Bad Salzuflen temperature yesterday

Maximum temperature yesterday: 55 °F (at 5:20 PM)
Minimum temperature yesterday: 34 °F (at 5:20 AM)
Average temperature yesterday: 46 °F

Past Weeks' High & Low Weather Summary

 TemperatureHumidityPressure
High73 °F (Apr 15, 3:20 PM)100% (Apr 5, 3:20 AM)30.60 "Hg (Apr 5, 3:20 AM)
Low28 °F (Apr 5, 6:20 AM)33% (Apr 6, 5:20 PM)29.89 "Hg (Apr 15, 6:20 PM)
Average49 °F67%30.24 "Hg
* Reported Apr 4 5:20 PM — Apr 19 5:20 PM, Bad Salzuflen, Weather by CustomWeather, © 2015

Note: Actual official high and low records may vary slightly from our data, if they occured in-between our weather recording intervals... More about our weather records

Advertising

Bad Salzuflen weather history for previous 24 hours

 ConditionsComfort  
Time TempWeatherWind HumidityBarometerVisibility
5:20 PM
Sun, Apr 19
59 °FPassing clouds.9 mph45%30.21 "HgN/A
4:20 PM59 °FPassing clouds.8 mph45%30.18 "HgN/A
3:20 PM57 °FPassing clouds.3 mph48%30.21 "HgN/A
2:20 PM55 °FPassing clouds.5 mph51%30.21 "HgN/A
1:20 PM55 °FPassing clouds.3 mph51%30.18 "HgN/A
12:20 PM52 °FPassing clouds.3 mph62%30.21 "HgN/A
11:20 AM48 °FPassing clouds.3 mph71%30.21 "HgN/A
10:49 AM46 °FPassing clouds.2 mph71%30.21 "HgN/A
10:20 AM45 °FPartly sunny.5 mph81%30.21 "HgN/A
9:20 AM43 °FPartly sunny.2 mph87%30.21 "HgN/A
8:20 AM41 °FLow clouds.3 mph87%30.21 "HgN/A
7:20 AM41 °FLow clouds.3 mph87%30.21 "Hg6 mi
6:20 AM41 °FLow clouds.2 mph87%30.18 "Hg6 mi
5:20 AM41 °FLow clouds.3 mph87%30.21 "HgN/A
4:20 AM41 °FLow clouds.2 mph87%30.21 "Hg6 mi
3:20 AM41 °FLow clouds.2 mph87%30.21 "HgN/A
2:20 AM39 °FPassing clouds.1 mph87%30.24 "HgN/A
1:20 AM39 °FPassing clouds.No wind81%30.27 "HgN/A
12:20 AM39 °FPassing clouds.No wind75%30.24 "HgN/A
11:20 PM
Sat, Apr 18
41 °FPassing clouds.1 mph76%30.27 "HgN/A
10:20 PM43 °FPassing clouds.2 mph71%30.27 "HgN/A
9:20 PM50 °FPartly sunny.6 mph50%30.27 "HgN/A
8:20 PM52 °FPassing clouds.No wind41%30.24 "HgN/A
7:20 PM54 °FScattered clouds.3 mph38%30.24 "HgN/A
6:20 PM55 °FPassing clouds.6 mph38%30.27 "HgN/A
Weather by CustomWeather, © 2015

See weather overviewHow to use our weather pages